KO4RJX-10 Weather Reports


time (UTC)temp
C
wind
direction
speed
KPH
gust
KPH
rain 1hr
cm
rain 24hr
cm
rain mn
cm
humidity
%
barometer
mb
20260505230946 24 110 8.0 16.1 0.00 0.00 0.00 44 1007.1
20260505230305 25 132 8.0 19.3 0.00 0.00 0.00 43 1007.5
20260505225837 25 121 6.4 19.3 0.00 0.00 0.00 42 1007.5
20260505224945 25 161 9.7 19.3 0.00 0.00 0.00 42 1007.5
20260505224305 25 137 9.7 19.3 0.00 0.00 0.00 41 1007.5
20260505223625 25 111 6.4 22.5 0.00 0.00 0.00 42 1007.5
20260505222945 25 152 11.3 22.5 0.00 0.00 0.00 41 1007.1
20260505222306 25 107 4.8 17.7 0.00 0.00 0.00 41 1007.5
20260505221625 25 129 6.4 22.5 0.00 0.00 0.00 40 1007.5
20260505220946 25 136 11.3 25.7 0.00 0.00 0.00 40 1007.5
20260505220305 25 124 6.4 22.5 0.00 0.00 0.00 40 1007.5
20260505215625 25 109 9.7 22.5 0.00 0.00 0.00 39 1007.5
20260505214945 26 154 6.4 27.4 0.00 0.00 0.00 39 1007.5
20260505214305 26 163 12.9 27.4 0.00 0.00 0.00 39 1007.5
20260505213625 26 136 8.0 20.9 0.00 0.00 0.00 39 1007.5
20260505212946 26 135 11.3 24.1 0.00 0.00 0.00 38 1007.5
20260505212306 26 131 9.7 25.7 0.00 0.00 0.00 39 1007.5
20260505211625 26 140 8.0 25.7 0.00 0.00 0.00 38 1007.8
20260505210945 26 112 8.0 20.9 0.00 0.00 0.00 39 1007.5
20260505210305 26 146 8.0 24.1 0.00 0.00 0.00 37 1007.8
20260505205838 26 120 9.7 24.1 0.00 0.00 0.00 37 1007.8
20260505204945 26 132 8.0 27.4 0.00 0.00 0.00 37 1007.5
20260505204514 26 185 11.3 25.7 0.00 0.00 0.00 37 1007.5
20260505203625 26 127 9.7 24.1 0.00 0.00 0.00 38 1007.5
20260505202946 26 114 9.7 20.9 0.00 0.00 0.00 38 1007.8
20260505202307 26 132 9.7 20.9 0.00 0.00 0.00 37 1007.5
20260505201625 26 203 8.0 20.9 0.00 0.00 0.00 40 1007.8
20260505200945 26 206 8.0 20.9 0.00 0.00 0.00 38 1007.8
20260505200518 25 94 8.0 22.5 0.00 0.00 0.00 39 1007.8
20260505195626 26 129 8.0 25.7 0.00 0.00 0.00 38 1008.1
20260505194946 26 171 9.7 25.7 0.00 0.00 0.00 37 1008.1
20260505194305 26 128 9.7 22.5 0.00 0.00 0.00 38 1008.1
20260505193625 26 128 9.7 22.5 0.00 0.00 0.00 39 1008.5
20260505192945 25 130 11.3 25.7 0.00 0.00 0.00 39 1008.5
20260505192306 26 107 8.0 24.1 0.00 0.00 0.00 38 1008.5
20260505191626 26 135 9.7 22.5 0.00 0.00 0.00 38 1008.5
20260505190945 26 176 11.3 22.5 0.00 0.00 0.00 38 1008.8
20260505190519 26 98 11.3 20.9 0.00 0.00 0.00 40 1008.8
20260505185625 26 84 6.4 20.9 0.00 0.00 0.00 37 1008.8
20260505184945 26 153 9.7 20.9 0.00 0.00 0.00 37 1009.1
20260505184516 26 119 9.7 20.9 0.00 0.00 0.00 37 1009.1
20260505183625 26 127 8.0 22.5 0.00 0.00 0.00 35 1009.5
20260505182945 26 157 8.0 27.4 0.00 0.00 0.00 38 1009.1
20260505182306 25 201 16.1 27.4 0.00 0.00 0.00 38 1009.1
20260505181625 26 120 9.7 24.1 0.00 0.00 0.00 37 1009.5
20260505180945 26 138 8.0 24.1 0.00 0.00 0.00 39 1009.5
20260505180305 25 135 8.0 24.1 0.00 0.00 0.00 40 1009.5
20260505175835 26 97 8.0 20.9 0.00 0.00 0.00 38 1009.5
20260505174945 25 124 11.3 25.7 0.00 0.00 0.00 40 1009.5
20260505174305 25 202 14.5 25.7 0.00 0.00 0.00 39 1009.5
20260505173625 26 175 8.0 29.0 0.00 0.00 0.00 40 1009.5
20260505172945 25 191 12.9 20.9 0.00 0.00 0.00 40 1009.5
20260505172306 25 123 8.0 27.4 0.00 0.00 0.00 40 1009.5
20260505171625 25 181 11.3 22.5 0.00 0.00 0.00 41 1009.5
20260505170945 25 157 6.4 25.7 0.00 0.00 0.00 41 1009.8
20260505170305 25 143 8.0 24.1 0.00 0.00 0.00 42 1009.8
20260505165625 25 132 8.0 22.5 0.00 0.00 0.00 43 1009.8
20260505164945 25 134 8.0 17.7 0.00 0.00 0.00 44 1009.8
20260505164305 25 112 6.4 17.7 0.00 0.00 0.00 44 1010.2
20260505163625 24 119 8.0 19.3 0.00 0.00 0.00 44 1009.8
20260505162945 25 76 4.8 17.7 0.00 0.00 0.00 44 1010.2
20260505162307 23 123 9.7 24.1 0.00 0.00 0.00 45 1010.2
20260505161625 23 188 4.8 25.7 0.00 0.00 0.00 47 1010.5
20260505160945 23 172 6.4 19.3 0.00 0.00 0.00 47 1010.5
20260505160305 23 136 6.4 20.9 0.00 0.00 0.00 46 1010.5
20260505153159 23 136 6.4 17.7 0.00 0.00 0.00 49 1010.8
20260505152305 22 192 9.7 24.1 0.00 0.00 0.00 50 1010.8
20260505151625 22 67 8.0 27.4 0.00 0.00 0.00 50 1010.5
20260505150945 22 172 4.8 27.4 0.00 0.00 0.00 52 1010.8
20260505150305 22 194 8.0 20.9 0.00 0.00 0.00 51 1010.8
20260505140305 20 192 6.4 22.5 0.00 0.00 0.00 60 1010.8
20260505130305 18 184 6.4 17.7 0.00 0.00 0.00 65 1010.8
20260505124945 17 192 6.4 14.5 0.00 0.00 0.00 68 1010.8
20260505124305 17 195 4.8 12.9 0.00 0.00 0.00 68 1010.8
20260505123625 17 305 4.8 12.9 0.00 0.00 0.00 69 1010.8
20260505122945 16 192 6.4 14.5 0.00 0.00 0.00 70 1010.8
20260505122306 16 192 6.4 14.5 0.00 0.00 0.00 71 1010.8
20260505121625 16 213 3.2 11.3 0.00 0.00 0.00 72 1010.8
20260505120945 15 195 4.8 11.3 0.00 0.00 0.00 72 1010.8
20260505120306 15 185 3.2 8.0 0.00 0.00 0.00 75 1010.8
20260505115625 15 172 3.2 11.3 0.00 0.00 0.00 75 1010.5
20260505114945 15 190 4.8 11.3 0.00 0.00 0.00 74 1010.5
20260505114305 15 141 1.6 6.4 0.00 0.00 0.00 75 1010.5
20260505113626 14 124 1.6 8.0 0.00 0.00 0.00 77 1010.5
20260505112945 13 125 3.2 8.0 0.00 0.00 0.00 78 1010.5
20260505112305 13 132 3.2 6.4 0.00 0.00 0.00 79 1010.5
20260505111838 13 141 1.6 6.4 0.00 0.00 0.00 79 1010.5
20260505111158 13 157 1.6 3.2 0.00 0.00 0.00 80 1010.2
20260505110519 13 149 1.6 4.8 0.00 0.00 0.00 80 1010.2
20260505101625 12 164 1.6 6.4 0.00 0.00 0.00 82 1009.5
20260505101159 12 177 3.2 6.4 0.00 0.00 0.00 81 1009.5
20260505100305 12 149 3.2 4.8 0.00 0.00 0.00 81 1009.5
20260505095835 12 143 1.6 4.8 0.00 0.00 0.00 80 1009.5
20260505095156 12 134 1.6 4.8 0.00 0.00 0.00 80 1009.5
20260505094516 12 160 1.6 6.4 0.00 0.00 0.00 79 1009.5
20260505093626 13 162 1.6 6.4 0.00 0.00 0.00 78 1009.5
20260505092945 13 152 1.6 4.8 0.00 0.00 0.00 78 1009.5
20260505092305 13 191 1.6 6.4 0.00 0.00 0.00 77 1009.1
20260505091626 13 171 3.2 8.0 0.00 0.00 0.00 76 1009.1
20260505090945 13 174 4.8 8.0 0.00 0.00 0.00 76 1009.1
20260505090305 13 183 4.8 9.7 0.00 0.00 0.00 75 1009.1
20260505085625 13 185 4.8 8.0 0.00 0.00 0.00 74 1009.1
20260505085156 13 189 4.8 8.0 0.00 0.00 0.00 74 1008.8
20260505084305 14 185 4.8 9.7 0.00 0.00 0.00 73 1008.8
20260505083625 14 183 4.8 9.7 0.00 0.00 0.00 74 1008.8
20260505082945 14 180 3.2 12.9 0.00 0.00 0.00 73 1008.8
20260505082305 14 154 3.2 12.9 0.00 0.00 0.00 72 1008.8
20260505081834 14 178 3.2 8.0 0.00 0.00 0.00 72 1008.8
20260505080945 14 178 3.2 8.0 0.00 0.00 0.00 72 1008.8
20260505080305 14 163 3.2 9.7 0.00 0.00 0.00 72 1008.8
20260505075836 14 147 3.2 8.0 0.00 0.00 0.00 72 1008.8
20260505074945 14 145 1.6 6.4 0.00 0.00 0.00 72 1008.8
20260505074306 14 169 3.2 9.7 0.00 0.00 0.00 71 1008.8
20260505073626 14 169 4.8 9.7 0.00 0.00 0.00 71 1008.8
20260505072945 14 175 3.2 11.3 0.00 0.00 0.00 71 1008.8
20260505072305 15 187 3.2 12.9 0.00 0.00 0.00 71 1008.8
20260505071625 15 184 6.4 12.9 0.00 0.00 0.00 71 1008.8
20260505070945 14 160 3.2 9.7 0.00 0.00 0.00 71 1008.5
20260505070305 15 144 4.8 11.3 0.00 0.00 0.00 70 1008.5
20260505065625 15 158 3.2 9.7 0.00 0.00 0.00 70 1008.5
20260505064945 15 141 4.8 9.7 0.00 0.00 0.00 71 1008.8
20260505064305 15 147 3.2 9.7 0.00 0.00 0.00 70 1008.8
20260505063839 15 157 3.2 9.7 0.00 0.00 0.00 70 1008.8
20260505062945 15 108 3.2 6.4 0.00 0.00 0.00 70 1008.5
20260505062305 15 170 3.2 8.0 0.00 0.00 0.00 69 1008.8
20260505061836 15 152 3.2 8.0 0.00 0.00 0.00 68 1008.8
20260505061156 15 144 1.6 8.0 0.00 0.00 0.00 67 1008.8
20260505060305 15 158 3.2 9.7 0.00 0.00 0.00 67 1008.8
20260505055626 15 122 3.2 9.7 0.00 0.00 0.00 66 1008.8
20260505054945 15 132 3.2 12.9 0.00 0.00 0.00 66 1009.1
20260505054305 16 123 3.2 11.3 0.00 0.00 0.00 65 1009.1
20260505053835 16 155 4.8 8.0 0.00 0.00 0.00 65 1009.1
20260505053155 16 181 3.2 8.0 0.00 0.00 0.00 64 1009.1
20260505052306 16 145 4.8 9.7 0.00 0.00 0.00 64 1009.1
20260505051625 16 131 3.2 11.3 0.00 0.00 0.00 64 1009.1
20260505050945 16 162 3.2 12.9 0.00 0.00 0.00 63 1009.1
20260505050305 16 148 4.8 12.9 0.00 0.00 0.00 64 1009.1
20260505041625 16 146 3.2 9.7 0.00 0.00 0.00 62 1009.1
20260505041158 17 125 3.2 14.5 0.00 0.00 0.00 61 1009.1
20260505040305 17 176 4.8 16.1 0.00 0.00 0.00 60 1009.1
20260505035625 17 62 4.8 16.1 0.00 0.00 0.00 60 1009.1
20260505035155 17 153 4.8 12.9 0.00 0.00 0.00 60 1009.1
20260505034305 17 210 4.8 12.9 0.00 0.00 0.00 59 1009.1
20260505033625 17 111 4.8 16.1 0.00 0.00 0.00 59 1009.1
20260505033156 17 150 4.8 16.1 0.00 0.00 0.00 58 1009.1
20260505032306 17 194 6.4 16.1 0.00 0.00 0.00 58 1008.8
20260505031625 17 123 4.8 14.5 0.00 0.00 0.00 58 1009.1
20260505031158 17 176 4.8 16.1 0.00 0.00 0.00 58 1009.1
20260505030305 17 186 3.2 17.7 0.00 0.00 0.00 57 1009.1
20260505025625 18 145 6.4 17.7 0.00 0.00 0.00 57 1008.8
20260505025155 18 158 6.4 16.1 0.00 0.00 0.00 57 1009.1
20260505024305 18 93 6.4 17.7 0.00 0.00 0.00 56 1009.1
20260505023625 18 145 6.4 17.7 0.00 0.00 0.00 56 1009.1
20260505022945 18 138 6.4 22.5 0.00 0.00 0.00 56 1008.8
20260505022305 18 142 9.7 22.5 0.00 0.00 0.00 55 1008.8
20260505021625 18 141 8.0 19.3 0.00 0.00 0.00 55 1008.8
20260505020945 18 125 6.4 14.5 0.00 0.00 0.00 55 1008.8
20260505020306 18 133 6.4 22.5 0.00 0.00 0.00 55 1008.8
20260505015625 19 128 6.4 22.5 0.00 0.00 0.00 55 1008.8
20260505014945 19 140 4.8 17.7 0.00 0.00 0.00 55 1008.5
20260505014305 19 124 6.4 17.7 0.00 0.00 0.00 55 1008.5
20260505013837 19 176 6.4 17.7 0.00 0.00 0.00 54 1008.5
20260505012946 20 140 3.2 20.9 0.00 0.00 0.00 54 1008.5
20260505012305 20 137 6.4 24.1 0.00 0.00 0.00 53 1008.1
20260505011839 20 123 8.0 24.1 0.00 0.00 0.00 53 1008.1
20260505010946 20 120 6.4 17.7 0.00 0.00 0.00 54 1008.1
20260505010306 20 129 8.0 19.3 0.00 0.00 0.00 53 1007.8
20260505005625 20 128 6.4 19.3 0.00 0.00 0.00 53 1007.8
20260505004946 20 89 4.8 19.3 0.00 0.00 0.00 52 1007.8
20260505004305 21 137 8.0 19.3 0.00 0.00 0.00 51 1007.5
20260505003625 21 131 8.0 25.7 0.00 0.00 0.00 48 1007.5
20260505002945 21 127 8.0 25.7 0.00 0.00 0.00 42 1007.1
20260505002305 21 142 6.4 11.3 0.00 0.00 0.00 39 1007.5
20260505001625 21 152 4.8 9.7 0.00 0.00 0.00 39 1007.1
20260505000945 22 136 3.2 11.3 0.00 0.00 0.00 38 1007.1
20260505000305 22 139 3.2 9.7 0.00 0.00 0.00 37 1007.1
20260504235625 22 175 3.2 9.7 0.00 0.00 0.00 36 1007.1
20260504234945 22 161 3.2 9.7 0.00 0.00 0.00 36 1007.1
20260504234305 22 129 3.2 14.5 0.00 0.00 0.00 35 1007.1
20260504233625 23 139 4.8 14.5 0.00 0.00 0.00 34 1006.8
20260504233159 23 127 3.2 9.7 0.00 0.00 0.00 33 1006.8
20260504232305 23 157 4.8 12.9 0.00 0.00 0.00 32 1006.8
20260504231835 24 191 6.4 14.5 0.00 0.00 0.00 31 1006.8